Regional Weather Roundup
Issued by NWS San Angelo, TX

Home | Current Version | Previous Version | Text Only | Print | Product List | Glossary On
Versions: 1 2 3 4 5 6 7 8 9 10 11 12 13 14 15 16 17 18 19 20 21 22 23 24 25 26 27 28 29 30 31 32 33 34 35 36 37 38 39 40 41 42 43 44 45 46 47 48 49 50
000
ASUS44 KSJT 031910
RWRSJT
WEST CENTRAL TEXAS REGIONAL WEATHER ROUNDUP
NATIONAL WEATHER SERVICE SAN ANGELO TX
100 PM CST TUE MAR 03 2015

NOTE: "FAIR" INDICATES FEW OR NO CLOUDS BELOW 12,000 FEET WITH NO
SIGNIFICANT WEATHER AND/OR OBSTRUCTIONS TO VISIBILITY.

TXZ049-054-064>066-071>073-076>078-098-099-113-114-127-128-139-140-
154-155-168>170-032000
...LOCATIONS ACROSS WEST CENTRAL TEXAS...

CITY           SKY/WX    TMP DP  RH WIND       PRES   REMARKS
SAN ANGELO     CLOUDY    58  50  75 S9G20     29.87F
ABILENE        CLOUDY    56  49  77 SW16      29.89S
DYESS AFB      CLOUDY    56  48  75 W14       29.87S
JUNCTION       CLOUDY    65  56  72 S13G20    29.87F
SWEETWATER     CLOUDY    53  48  85 SW12      29.90F
BROWNWOOD      PTSUNNY   50  50 100 S7        29.89F
COLEMAN        CLOUDY    55  52  88 S6        29.88F
SONORA         CLOUDY    55  50  82 S12       29.93F
OZONA          CLOUDY    52  46  82 SW14      29.91F
BRADY          CLOUDY    61  57  88 S10       29.86F
$$

TEXAS PANHANDLE/OKLAHOMA PANHANDLE

CITY           SKY/WX    TMP DP  RH WIND       PRES   REMARKS
AMARILLO       CLOUDY    59  29  31 W16G24    29.83S
BORGER         CLOUDY    53  36  52 S6        29.83S
CANADIAN       CLOUDY    56  38  52 SW7       29.83R
DALHART        CLOUDY    51  33  50 SW14      29.83F
DUMAS          CLOUDY    52  38  58 W9        29.83R
GUYMON         NOT AVBL
HEREFORD       CLOUDY    57  36  45 NW13      29.84F
PAMPA          CLOUDY    51  37  57 S6        29.85R
PERRYTON         N/A     48  40  73 W9        29.81R
$$

SOUTHERN PANHANDLE/SOUTH PLAINS/ROLLING PLAINS

CITY           SKY/WX    TMP DP  RH WIND       PRES   REMARKS
LUBBOCK        CLOUDY    53  44  71 W7        29.86F
SNYDER         CLOUDY    47  46  96 CALM      29.88F FOG
CHILDRESS      CLOUDY    59  40  49 W6        29.85F
SEMINOLE       CLOUDY    51  44  75 NE5       29.89F
$$

PERMIAN BASIN

CITY           SKY/WX    TMP DP  RH WIND       PRES   REMARKS
MIDLAND        CLOUDY    52  46  80 N3        29.87F
ODESSA         CLOUDY    52  46  80 NE6       29.88S
WINK           PTSUNNY   55  42  61 E6        29.83F
$$

FAR WEST/SOUTHWEST MOUNTAINS/TRANS PECOS

CITY           SKY/WX    TMP DP  RH WIND       PRES   REMARKS
ALPINE         MOCLDY    70  36  28 SW21G35   29.96F
DRYDEN           N/A     58  45  62 VRB5      29.87F
EL PASO        LGT RAIN  54  49  83 SE3       29.92F
FORT STOCKTON  CLOUDY    57  45  64 NE5       29.84F
GUADALUPE PASS NOT AVBL
MARFA          PTSUNNY   72  37  28 S23G31    29.93F
PECOS          MOCLDY    52  44  72 CALM      29.85F
$$

DALLAS/FORT WORTH METROPLEX

CITY           SKY/WX    TMP DP  RH WIND       PRES   REMARKS
DFW AIRPORT    CLOUDY    48  47  96 SE3       29.92F FOG
FTW MEACHAM    CLOUDY    53  48  83 SE6       29.91F
DAL-EXECUTIVE  LGT RAIN  50  49  96 S5        29.92F FOG
GRAND PRAIRIE  CLOUDY    48  48 100 CALM      29.94F
ADDISON        CLOUDY    48  46  93 E3        29.94  FOG
MESQUITE       NOT AVBL
LANCASTER      DRIZZLE   47  46  95 CALM      29.95F
$$

NORTH CENTRAL TEXAS

CITY           SKY/WX    TMP DP  RH WIND       PRES   REMARKS
SHRMAN/DENISON CLOUDY    48  48 100 CALM      29.95F FOG
GAINESVILLE    CLOUDY    47  45  93 SE5       29.93F FOG
BRIDGEPORT     CLOUDY    50  47  90 E6        29.92F
DENTON         CLOUDY    50  46  86 CALM      29.92F FOG
WAXAHACHIE     CLOUDY    48  48 100 S5        29.95F
GRANBURY       CLOUDY    53  49  86 E6        29.91F
$$

WESTERN NORTH TEXAS

CITY           SKY/WX    TMP DP  RH WIND       PRES   REMARKS
WICHITA FALLS  CLOUDY    52  44  74 SW6       29.90S
VERNON         CLOUDY    57  42  58 SW13      29.88S
BRECKENRIDGE   CLOUDY    62  52  70 SW12      29.87F HAZE
COMANCHE       CLOUDY    55  55 100 S6        29.89F
$$

CENTRAL AND SOUTH CENTRAL TEXAS

CITY           SKY/WX    TMP DP  RH WIND       PRES   REMARKS
AUSTIN/BERGSTM FOG       51  51 100 S5        29.92F VSB 1/4
WACO           LGT RAIN  46  45  96 CALM      29.95F FOG
HILLSBORO      CLOUDY    48  47  96 S3        29.94F FOG
TEMPLE         CLOUDY    46  45  93 CALM      29.93S
KILLEEN-GRAY   FOG       48  48 100 S3        29.92F VSB 1/4
FORT HOOD      FOG       46  46 100 S6        29.93F VSB 1/2
GEORGETOWN     FOG       50  48  93 CALM      29.92F VSB 1/2
LAGO VISTA     RAIN      54  52  95 S5        29.92F VSB<1/4
SAN MARCOS     FOG       54  52  94 SW6       29.94F VSB 1/2
NEW BRAUNFELS  FOG       55  54  96 S7        29.93F VSB 1/8
RANDOLPH AFB   CLOUDY    55  54  97 SW7       29.93F FOG
SAN ANTONIO    CLOUDY    56  54  93 S6        29.94F FOG
STINSON        CLOUDY    54  52  93 CALM      29.93F FOG
PLEASANTON     NOT AVBL
LA GRANGE      CLOUDY    69  67  94 S10       29.91F FOG
GIDDINGS       FOG       60  60  99 S6        29.97F VSB 1/2
$$

EAST TEXAS

CITY           SKY/WX    TMP DP  RH WIND       PRES   REMARKS
PARIS          CLOUDY   N/A N/A N/A MISG        N/A
CLARKSVILLE    NOT AVBL
TYLER          CLOUDY    65  60  84 S17       29.94F
LONGVIEW       PTSUNNY   64  59  83 SE10      29.94F
PALESTINE      CLOUDY    65  63  91 S9        29.95F
NACOGDOCHES    CLOUDY    66  63  88 S7        29.98F
$$

TEXAS HILL COUNTRY AND EDWARDS PLATEAU

CITY           SKY/WX    TMP DP  RH WIND       PRES   REMARKS
LLANO          CLOUDY    52  52 100 E5        29.93F FOG
HORSESHOE BAY  CLOUDY   N/A N/A N/A NW3       29.92F
KERRVILLE      CLOUDY    56  55  95 S9        29.93F FOG
FREDERICKSBRG  CLOUDY    57  56  98 S10       29.91F
ROCKSPRINGS    NOT AVBL
HONDO          CLOUDY    55  53  93 S6        29.95F FOG
UVALDE         CLOUDY    53  51  92 SE5       29.94F
DEL RIO        CLOUDY    57  49  74 SE10      29.89F
$$

SOUTHEAST TEXAS

CITY           SKY/WX    TMP DP  RH WIND       PRES   REMARKS
COLLEGE STN    CLOUDY    69  66  90 S17G24    29.93F
CALDWELL       CLOUDY    61  61 100 S5        29.95F FOG
CROCKETT       CLOUDY    72  66  83 S15       29.98F
BRENHAM        PTSUNNY   71  71  98 S18G25    29.93F
HUNTSVILLE     CLOUDY    69  65  86 S10       29.95F
CONROE         CLOUDY    68  65  90 SE10      29.96F FOG
HOUSTON BUSH   PTSUNNY   75  66  73 S14G23    29.96F
HOUSTON HOBBY  PTSUNNY   76  67  73 S15G23    29.96F
PERLAND        CLOUDY    76  66  71 S15G29    29.99F
WHARTON        MOCLDY    76  67  75 S24G30    29.96F
$$

THE UPPER TEXAS COAST

CITY           SKY/WX    TMP DP  RH WIND       PRES   REMARKS
ORANGE         PTCLDY    75  68  78 S12G20    30.02F
PORT ARTHUR    PTSUNNY   80  66  62 S20G31    29.99F
GALVESTON      PTSUNNY   72  68  87 S17       30.00F FOG
ANGLETON       CLOUDY    74  67  78 S24G32    29.98F
BAY CITY       CLOUDY    78  71  78 S18       29.97F
$$

TEXAS COASTAL BEND, RIO GRANDE PLAINS DEEP SOUTH TEXAS

CITY           SKY/WX    TMP DP  RH WIND       PRES   REMARKS
VICTORIA       PTSUNNY   74  68  81 S25G32    29.94F
BEEVILLE       NOT AVBL
ROCKPORT       CLOUDY    69  65  86 S9G20     29.94F
PORT ARANSAS   CLOUDY    63  62  97 S8        29.94F FOG
PORT LAVACA    MOCLDY    74  69  83 S21G26    29.95F
CORPUS CHRISTI CLOUDY    65  63  93 SW7       29.94F FOG
KINGSVILLE NAS FOG       59  59 100 VRB3      29.94F VSB 1/2
COTULLA        CLOUDY    54  51  90 CALM      29.94F FOG
LAREDO         CLOUDY    57  53  86 E6        29.94F
BROWNSVILLE    PTSUNNY   78  67  68 S20       29.93F
PORT ISABEL    PTSUNNY   77  69  76 S21G31    29.92F HAZE
HEBBRONVILLE   CLOUDY   N/A N/A N/A SE5       29.93F
MCALLEN        CLOUDY    65  62  90 SE9       29.93F FOG
WESLACO        CLOUDY    62  60  95 CALM      29.93F FOG
FALFURRIAS     CLOUDY    57  56  94 CALM      29.94F VSB 3/4
EDINBURG       CLOUDY    62  60  93 SE3       29.94F FOG
$$


USA.gov is the U.S. government's official web portal to all federal, state and local government web resources and services.